Location: Blue Pit
(43.1414°N, 93.2208°W)
Time: 01:51:32
(UTC+00:00)

Cosmos 1975 Rocket - Pass Details

Date: 18 November 2025
Orbit: 598 x 626 km, 82.5° (Epoch: 08 December)

Event Time Altitude Azimuth Distance (km) Brightness Sun altitude
Rises 12:26:37 0° 185° (S) 2,832 6.6 -8.1°
Reaches altitude 10° 12:28:49 10° 185° (S) 1,932 5.8 -7.7°
Maximum altitude 12:33:05 85° 98° (E) 606 3.1 -7.0°
Drops below altitude 10° 12:37:24 10° 9° (N) 1,946 5.5 -6.3°
Sets 12:39:37 0° 9° (N) 2,855 6.3 -5.9°
